Location: Evergreen Manor
(41.4083°N, 81.4939°W)
Time: 02:27:39
(UTC+00:00)

Cosmos 1452 Rocket - Pass Details

Date: 11 December 2019
Orbit: 767 x 774 km, 74.1° (Epoch: 26 January)

Event Time Altitude Azimuth Distance (km) Brightness Sun altitude
Rises 10:49:28 0° 208° (SSW) 3,232 6.6 -20.3°
Reaches altitude 10° 10:51:52 10° 212° (SSW) 2,310 5.8 -19.9°
Maximum altitude 10:57:03 60° 292° (WNW) 885 3.5 -18.9°
Drops below altitude 10° 11:02:17 10° 12° (NNE) 2,329 6.0 -18.0°
Sets 11:04:42 0° 17° (NNE) 3,261 6.8 -17.6°
